Regional Weather Roundup
Issued by NWS Northern Indiana

Home | Current Version | Previous Version | Graphics & Text | Print | Product List | Glossary On
Versions: 1 2 3 4 5 6 7 8 9 10 11 12 13 14 15 16 17 18 19 20 21 22 23 24 25 26 27 28 29 30 31 32 33 34 35 36 37 38 39 40 41 42 43 44 45 46 47 48 49 50
000
ASUS43 KIWX 301410
RWRIWX

KIWX WEATHER ROUNDUP
NATIONAL WEATHER SERVICE NORTHERN INDIANA
1000 AM EDT SAT APR 30 2016

NOTE: "FAIR" INDICATES FEW OR NO CLOUDS BELOW 12,000 FEET WITH NO
SIGNIFICANT WEATHER AND/OR OBSTRUCTIONS TO VISIBILITY.

* THESE STATIONS ARE NOT UNDER NWS QUALITY CONTROL. THEY ALSO MAY NOT
  REPORT WEATHER SUCH AS PRECIPITATION OR FOG.

INZ001>027-301500-
NORTHERN INDIANA

CITY           SKY/WX    TMP DP  RH WIND       PRES   REMARKS
GARY*          CLOUDY    50  46  87 E12       30.05S
VALPARAISO     CLOUDY    47  40  76 E12       30.05F
MICHIGAN CITY* CLOUDY    46  36  66 E9        30.06F
LAPORTE*       CLOUDY    49  37  61 E14G20    30.06F
KNOX*          CLOUDY    46  34  61 E13       30.05F
SOUTH BEND     CLOUDY    47  34  60 SE15      30.08F
ELKHART*       PTSUNNY   48  41  76 E15       30.09F
GOSHEN         CLOUDY    47  35  63 E16       30.08F
MONTICELLO*    LGT RAIN  47  43  84 E7        30.02S
LOGANSPORT*    LGT RAIN  46  43  87 E10G16    30.04S
ROCHESTER*     CLOUDY    48  43  81 E12       30.06F
WARSAW*        CLOUDY    45  36  70 E15G21    30.07F
ANGOLA*        SUNNY     48  37  66 SE12      30.10F
FORT WAYNE     CLOUDY    46  40  79 E14       30.08F
HUNTINGTON*    CLOUDY   N/A N/A N/A E10       30.07S
PERU/GRISSOM   LGT RAIN  47  44  88 E14       30.01F
MARION*        CLOUDY    47  42  84 E13       30.04S

$$
INZ028>050-301500-
CENTRAL INDIANA

CITY           SKY/WX    TMP DP  RH WIND       PRES   REMARKS
LAFAYETTE      LGT RAIN  49  46  90 E10       30.01R FOG
KOKOMO*        CLOUDY    48  41  76 E14       30.02F
MUNCIE*        LGT RAIN  50  43  77 E12       30.04S
INDIANAPOLIS   LGT RAIN  50  48  93 E9        30.00R FOG

$$
MIZ043>046-050>051-056>058-064>065-071>073-077>080-301500-
SOUTHWEST LOWER MICHIGAN

CITY           SKY/WX    TMP DP  RH WIND       PRES   REMARKS
BATTLE CREEK   PTSUNNY   49  36  61 E9        30.11F
BENTON HARBOR  CLOUDY    50  39  66 E12       30.07F
COLDWATER*     MOSUNNY   49  37  61 E10       30.11F
HILLSDALE*     CLOUDY    48  35  60 E13       30.12S
HOLLAND        PTSUNNY   49  39  68 E10       30.12F
GRAND RAPIDS   CLOUDY    49  37  63 E12       30.14S
KALAMAZOO      PTSUNNY   51  37  58 E7        30.11F
STURGIS*       CLOUDY    48  39  70 SE13G18   30.09F
THREE RIVERS*  FAIR      49  39  68 E8        30.10F

$$
OHZ001>008-015>018-024>025-301500-
NORTHWEST OHIO

CITY           SKY/WX    TMP DP  RH WIND       PRES   REMARKS
WAUSEON*         N/A     50 N/A N/A E10G17    30.12S
DEFIANCE       MOSUNNY   50  35  56 E14       30.11F
FINDLAY        CLOUDY    49  37  63 E12G18    30.09F
TOLEDO EXPRESS CLOUDY    50  36  58 E10       30.12S
TOLEDO METCALF CLOUDY    51  38  60 E9        30.14R
LIMA           CLOUDY    45  42  89 E10       30.08S

$$
AND FOR LAKE MICHIGAN COASTAL AND OPEN LAKE BUOY OBSERVATIONS

STATION/POSITION TEMP    WIND        PRES    VSBY  WAVE
                 AIR SEA DIR/SP/G                  HT/PER
                 (F)     (DEG/KT/KT) (MB)    (MI)  (FT/S)
CALUMET HARBOR    47      70/ 10/ 14 1016.9F
MICHIGAN CITY     47      70/  9/ 11   N/A
BURNS HARBOR      48     100/ 12/ 17 1018.3F
SAINT JOSEPH      50     350/  2/  7 1018.6
SOUTH LAKE BUOY   42 40   90/ 10/ 12 1019.6          1/ 3
4 MI NW BRIDGMAN  48 47                N/A           1

$$
&&




USA.gov is the U.S. government's official web portal to all federal, state and local government web resources and services.